RH
85 86 86 84 83 82 81 82 82 83 83 84 84 84 83 82 81 81 80 79 79 78 77 77 76 76 77 77 77 77 76 73 69 62 55 48 46 46 45 42 41 41 45 50 53 56 58 55 57 61 64 66 71 77 82 84 85 85 85 84 83 81 80 81 82 82 82 82 82 82 82 82 82 82 82 82 82 82 83 82 82 82 82 82 82 82 83 83 83 83 83 82 82 83 83 83 82 82 82 82 82 82 82
86 86 86 84 83 82 82 82 82 82 83 83 83 83 82 81 79 79 79 79 79 78 78 77 75 75 76 76 76 76 76 74 70 64 56 45 36 30 27 25 23 21 20 23 29 35 41 48 58 66 71 72 73 76 78 80 82 83 84 85 84 83 81 82 82 82 81 82 82 82 82 82 82 82 82 82 82 82 83 83 82 82 82 82 82 82 82 83 83 83 83 82 83 83 83 83 83 82 82 82 82 82 82
87 87 86 84 83 83 82 82 82 81 81 81 82 82 81 79 78 77 78 78 79 79 78 76 73 72 73 75 76 76 75 74 70 64 57 43 28 16 13 13 10 6 4 6 10 17 24 37 49 59 63 62 63 64 67 71 74 76 78 82 85 86 84 83 82 82 81 81 81 82 82 82 82 82 81 81 81 82 82 82 83 83 82 82 82 82 82 82 83 83 82 82 82 82 82 82 82 82 82 82 82 82 82
87 87 85 84 84 83 83 83 82 81 80 80 81 81 80 78 77 76 77 78 79 80 78 74 70 67 69 72 74 74 74 73 70 64 56 42 25 10 4 4 3 3 2 2 4 6 12 21 30 37 39 38 39 43 53 61 66 68 71 77 83 86 86 85 84 82 82 81 81 81 81 80 81 82 81 81 81 81 81 82 82 82 82 82 82 82 82 82 82 82 83 82 82 82 82 82 82 82 82 82 82 82 82
87 86 85 84 83 83 85 84 83 81 80 79 80 80 79 78 77 77 78 79 80 79 77 73 67 63 61 64 67 69 72 71 68 64 57 41 26 12 3 3 4 4 3 3 2 3 4 7 11 15 16 17 21 29 42 53 59 61 64 70 76 82 87 88 86 85 85 83 82 81 80 80 81 82 82 82 81 81 80 81 81 81 82 82 82 82 82 82 82 82 82 83 83 83 82 82 82 83 83 82 82 82 82
87 86 85 84 83 82 83 84 84 82 80 80 80 79 79 78 78 78 78 79 79 78 75 71 66 61 57 56 57 60 65 68 68 64 58 45 30 17 6 4 3 4 4 4 3 3 3 3 3 4 5 8 14 23 34 44 48 51 57 64 70 77 86 86 87 88 87 85 84 84 82 81 82 82 84 85 83 81 81 81 81 81 81 82 82 82 82 82 82 82 82 82 82 83 83 83 82 83 83 82 82 82 82
87 86 85 84 83 83 82 83 84 83 82 81 80 79 79 78 78 78 78 78 77 75 73 69 65 61 57 55 54 54 57 63 65 64 59 48 36 23 11 5 3 3 4 4 4 4 3 3 3 2 2 4 8 15 24 33 38 42 50 60 68 76 85 83 84 86 87 87 87 86 84 83 83 83 84 86 86 85 84 84 84 82 81 81 81 82 82 82 82 82 82 82 82 82 83 83 83 83 83 82 82 82 82
87 86 84 84 84 84 83 82 81 82 83 82 81 80 79 78 78 77 77 75 74 73 71 69 65 62 59 55 53 51 52 56 60 62 59 50 39 28 17 9 4 3 3 3 4 4 4 4 3 3 2 2 4 8 14 21 28 35 46 56 67 78 88 84 83 83 84 84 85 84 82 84 85 85 83 85 86 86 85 84 85 85 83 82 81 81 82 82 82 82 82 82 82 82 82 82 82 83 83 83 83 82 82
87 85 84 84 84 84 83 83 83 84 84 83 82 81 80 79 77 76 75 74 73 72 71 69 66 63 60 56 53 49 46 49 53 55 55 49 41 32 22 14 7 3 2 3 3 3 4 4 4 3 3 3 3 3 6 11 18 27 38 48 60 73 88 83 81 81 81 81 81 82 81 82 83 83 82 85 86 86 86 83 84 85 85 84 83 82 82 82 82 82 82 82 82 82 82 82 82 82 82 83 83 83 82
86 85 84 84 84 84 85 84 84 83 83 83 83 83 81 80 78 76 75 74 73 73 72 69 65 60 55 56 53 49 43 42 44 46 47 45 40 34 25 17 10 5 2 2 3 3 3 3 4 4 4 3 3 3 3 5 9 16 25 36 47 62 84 82 81 81 81 81 80 80 80 82 82 82 82 84 86 86 85 84 84 84 84 85 84 83 82 82 82 82 82 82 82 82 82 82 82 82 82 82 82 83 83
86 85 84 85 84 84 84 84 84 83 81 83 84 83 83 81 79 77 75 74 74 73 72 69 64 57 50 49 47 44 42 38 37 38 39 40 38 33 26 19 12 6 3 2 2 3 3 3 3 4 4 4 3 3 3 3 4 7 13 21 34 54 80 81 81 81 82 81 81 81 80 81 81 81 82 83 83 84 85 84 84 83 82 83 84 84 83 82 82 82 82 82 82 82 82 82 82 82 82 82 82 82 83
86 84 84 85 84 83 83 81 81 81 83 84 85 84 84 83 81 78 76 75 74 73 72 70 65 58 53 49 45 41 37 33 30 30 31 33 33 31 25 19 13 8 4 2 2 2 3 3 3 3 3 4 4 3 3 3 3 3 6 10 28 52 75 78 80 82 83 81 81 81 81 79 79 79 80 81 81 81 84 84 83 83 82 82 83 85 85 84 83 82 81 82 82 83 82 81 81 82 82 82 82 82 82
86 84 84 84 84 83 81 80 80 81 82 84 84 84 84 84 82 80 78 77 75 74 72 70 66 61 57 52 47 42 37 31 26 22 22 24 26 26 23 17 13 8 5 3 2 2 2 3 3 3 3 3 4 4 3 3 3 3 3 5 23 48 71 75 78 80 82 82 82 81 80 78 76 76 77 79 81 82 83 83 83 83 83 82 82 82 84 85 84 83 82 82 82 82 82 82 81 81 82 82 82 81 81
86 85 84 84 84 83 81 78 79 81 82 82 83 83 83 84 83 82 80 79 77 75 73 71 68 64 60 55 50 45 39 31 24 19 15 16 18 20 19 15 12 9 5 4 2 2 2 2 3 3 3 3 3 4 4 4 3 3 3 3 18 41 65 71 74 77 79 81 82 81 79 76 73 71 73 76 79 80 82 82 82 83 83 82 82 82 83 83 84 84 84 83 82 82 83 82 82 82 81 81 82 82 81
86 85 85 84 84 83 82 79 78 79 79 81 82 83 83 84 84 83 82 81 79 76 74 72 69 66 62 58 53 47 39 31 24 18 14 12 13 14 16 13 11 9 5 4 3 2 1 2 3 3 3 3 3 3 4 4 4 4 3 3 14 34 60 68 73 75 76 77 79 81 80 76 71 69 71 74 76 78 80 81 81 82 83 83 82 82 83 83 82 82 83 84 84 84 84 83 82 82 82 81 81 82 82
87 86 85 84 83 83 82 79 77 77 78 80 82 83 83 84 84 84 83 82 81 79 76 74 71 67 64 60 55 49 43 35 28 22 17 14 12 11 12 13 11 7 4 4 3 2 1 2 2 3 3 3 3 3 3 4 4 4 4 3 10 26 53 66 73 75 74 74 76 79 80 77 73 70 70 73 74 75 78 79 78 78 81 82 83 85 85 84 83 82 81 83 84 84 84 84 83 83 83 82 81 81 81
86 86 86 85 83 82 81 79 77 76 77 80 81 82 83 83 84 84 84 83 82 81 79 77 73 70 66 62 58 53 46 38 31 25 18 14 11 9 8 13 9 4 2 2 2 2 1 2 2 3 3 3 3 3 3 3 4 4 4 2 7 21 44 62 72 75 74 73 74 76 77 78 77 76 73 74 74 75 77 76 75 76 79 80 82 85 87 86 85 83 82 82 83 84 84 84 84 83 83 82 82 81 81
83 84 85 85 84 82 81 79 77 75 73 77 80 81 82 83 84 83 83 83 83 83 81 79 76 73 68 64 60 54 44 37 31 25 19 14 10 8 7 8 5 2 1 1 1 1 1 2 2 3 3 3 3 3 3 3 3 3 4 3 5 14 33 54 66 73 76 75 75 75 75 76 78 79 79 78 76 75 75 75 76 78 79 78 79 82 86 87 87 86 85 84 84 84 84 84 84 84 83 83 82 81 81
81 82 84 84 84 82 80 79 77 74 70 69 72 77 81 83 84 84 83 83 83 83 83 81 79 75 71 68 63 56 47 39 32 27 22 17 13 10 7 5 4 3 2 2 2 2 2 2 3 3 3 3 3 3 3 3 3 3 3 3 3 9 24 45 59 69 74 75 75 75 75 75 76 78 81 82 80 78 76 76 77 79 79 77 77 78 83 86 87 87 87 87 86 86 85 85 85 84 84 84 83 82 82
80 81 83 84 84 83 82 80 78 75 73 67 67 70 77 81 83 83 83 83 83 83 83 82 81 79 76 74 68 60 50 41 33 27 22 19 15 12 9 7 5 4 3 3 2 2 2 2 3 3 3 3 3 3 3 3 3 3 3 3 2 6 16 35 50 61 69 72 73 74 74 74 75 76 78 80 82 81 79 77 76 77 76 78 78 77 79 83 84 85 85 86 86 87 86 86 86 84 84 84 83 83 82
80 80 81 82 82 81 82 82 81 81 79 75 71 69 68 71 75 79 80 81 81 81 82 82 82 81 80 77 71 64 53 43 36 29 23 19 15 12 10 8 6 5 4 4 3 3 3 3 3 3 3 3 3 3 3 3 3 3 2 2 2 3 8 22 36 50 61 67 70 71 73 73 73 74 76 78 80 81 81 79 77 77 77 79 78 76 77 80 81 82 82 83 84 85 86 87 86 85 84 82 82 83 81
81 80 79 79 78 77 77 78 79 80 80 78 75 69 61 59 60 65 69 72 74 76 78 80 80 80 79 76 72 65 55 47 39 32 25 20 16 12 9 7 6 5 5 5 4 4 4 4 3 3 3 3 3 3 3 3 3 3 3 2 2 2 3 9 21 36 52 61 67 70 73 74 75 76 76 77 78 79 81 80 80 80 79 80 77 74 75 78 81 81 80 81 82 83 84 86 86 86 86 82 82 83 81
84 82 80 78 77 75 73 72 72 74 75 76 73 68 60 54 51 51 54 57 60 62 66 70 73 74 73 73 70 64 56 48 41 33 26 20 16 12 9 7 6 5 5 5 5 5 5 5 4 4 4 4 4 4 4 4 3 3 3 3 2 2 2 4 10 22 40 54 63 69 71 73 74 76 76 77 77 78 79 80 81 81 81 81 79 76 75 77 79 81 81 79 79 80 81 83 85 86 86 84 84 83 81
87 85 83 81 78 76 73 71 69 68 69 70 69 65 60 54 49 46 44 45 47 48 51 56 59 62 64 65 64 61 55 48 41 33 27 21 17 13 10 8 6 5 4 4 4 5 5 5 5 5 5 4 4 4 4 4 4 4 3 3 3 3 2 2 5 12 26 44 56 64 69 69 71 73 75 76 77 77 78 79 80 81 82 82 81 80 79 79 79 79 80 79 79 79 80 81 82 83 84 83 83 83 82
90 88 86 84 82 79 76 73 71 68 66 66 64 62 60 55 51 46 43 41 40 40 41 43 46 49 52 54 54 53 51 46 39 33 28 24 20 16 13 10 7 6 5 4 4 4 5 5 5 5 5 5 5 5 5 5 4 4 4 4 3 3 3 2 2 5 12 26 41 55 63 65 67 70 72 74 76 77 77 76 76 76 78 81 82 83 82 82 80 79 81 81 81 80 80 80 81 81 81 82 82 82 82
92 90 89 87 85 83 80 77 74 72 69 66 64 62 60 57 53 49 45 42 39 38 36 36 37 38 40 43 44 45 45 42 39 35 31 28 25 22 17 14 11 8 7 6 5 5 5 5 5 5 5 5 5 5 6 6 5 5 5 4 4 3 3 3 2 2 3 10 21 35 51 59 64 67 70 70 72 74 72 70 70 72 74 77 79 81 83 83 81 81 82 83 82 81 81 80 80 80 80 81 81 81 81
93 92 90 89 88 86 84 81 79 76 73 70 67 65 63 60 56 53 49 46 42 39 36 34 33 32 32 34 36 37 39 39 38 37 34 32 30 27 24 19 16 13 11 10 8 7 6 6 6 6 6 6 6 6 6 6 6 6 6 5 5 4 4 3 3 3 2 3 8 19 37 51 61 65 65 69 71 71 70 70 72 73 73 74 76 78 81 82 81 80 79 81 82 82 81 81 81 80 80 80 80 81 81
93 92 91 90 89 88 86 84 82 80 78 75 72 70 67 64 61 58 55 51 47 44 40 36 33 31 29 29 30 31 32 34 35 36 36 35 34 32 30 26 23 19 17 15 13 11 10 9 8 8 7 7 6 6 6 6 6 6 6 6 6 5 5 4 4 3 3 3 5 10 20 40 54 62 62 66 69 72 74 69 70 72 73 73 73 75 77 78 78 78 79 79 79 80 82 82 81 81 80 81 81 81 81
92 92 91 91 90 89 87 86 84 83 81 79 77 75 72 69 66 63 60 57 54 50 47 42 38 35 32 29 28 28 28 30 32 34 35 36 36 35 35 33 30 26 23 21 18 16 14 13 12 10 9 9 8 7 7 6 6 6 6 7 6 6 6 5 5 4 4 3 4 7 14 29 46 59 63 65 68 70 71 69 71 73 72 72 73 74 75 76 77 78 78 78 78 79 81 81 81 81 81 81 81 81 81
90 90 90 90 90 89 88 87 86 84 83 82 80 77 75 73 71 68 65 63 60 57 54 50 46 42 39 35 33 31 29 30 32 34 35 36 37 37 38 37 35 32 30 27 24 22 19 17 15 13 12 11 10 9 9 8 8 7 7 7 7 7 7 7 6 6 5 4 4 6 12 21 37 53 62 66 68 69 70 71 72 72 72 73 73 74 75 76 77 79 78 78 77 77 78 79 81 81 81 82 81 81 81
88 88 89 89 89 89 88 88 87 86 84 84 82 80 78 77 75 73 70 68 66 63 60 57 53 50 46 43 40 37 35 35 36 38 38 39 40 40 40 40 39 38 35 33 30 27 24 21 19 17 15 14 13 12 11 10 10 9 8 8 8 7 7 7 7 7 6 6 5 6 10 17 32 47 56 64 67 67 66 72 74 73 69 71 73 74 75 76 77 78 78 79 79 78 79 79 80 81 81 81 81 81 81
88 88 89 89 90 90 89 89 88 87 86 85 84 82 81 80 79 77 75 73 71 68 66 63 60 57 53 50 47 44 42 41 41 42 42 42 43 43 43 43 43 42 40 38 36 32 29 26 23 21 19 17 16 15 14 13 12 11 11 10 9 9 8 8 8 8 7 7 6 6 8 13 24 38 54 60 65 66 63 69 73 74 70 71 72 73 75 75 76 77 77 79 79 79 79 79 80 80 80 81 81 81 81
90 90 90 91 91 91 90 90 89 89 88 87 86 85 84 83 82 81 79 78 76 74 71 69 66 63 60 56 54 51 48 47 46 46 45 45 45 46 45 46 46 46 45 44 42 39 35 33 30 26 23 22 20 18 17 16 14 13 13 12 11 10 10 9 9 9 8 8 8 7 6 9 13 21 34 49 59 64 65 69 71 73 72 72 72 73 74 74 75 76 77 78 80 81 80 79 79 80 80 80 81 81 81
93 93 93 92 92 92 92 92 91 90 89 89 89 88 87 86 85 84 83 81 80 78 76 74 71 69 66 63 60 57 55 52 51 49 48 48 49 50 50 51 51 50 50 49 47 45 42 40 37 33 30 27 24 23 21 20 18 16 14 14 13 13 12 11 10 10 10 9 9 8 8 7 9 12 17 31 46 57 63 66 69 70 72 73 73 73 73 74 75 75 76 77 78 79 80 79 79 80 80 80 80 80 81
95 95 94 94 94 94 93 93 92 92 91 91 90 90 89 89 88 87 86 85 83 82 80 78 76 73 71 68 65 63 61 59 57 55 53 51 53 54 55 55 55 54 54 53 51 49 48 46 43 39 37 34 31 29 27 24 22 20 19 18 17 16 15 13 12 12 11 11 10 10 10 9 9 10 13 17 29 43 55 61 65 67 70 72 73 73 73 73 74 73 73 75 76 77 77 77 78 79 79 80 80 80 80
96 96 96 95 95 95 94 94 94 93 93 93 92 92 91 91 90 89 88 87 86 84 83 82 80 77 75 73 70 67 66 65 63 60 58 56 57 58 58 57 57 57 57 56 54 53 52 50 48 45 43 40 38 35 33 30 28 27 25 25 24 23 22 20 18 16 14 13 12 11 11 11 10 10 11 14 18 26 41 53 60 64 67 69 72 73 73 73 73 73 71 72 73 74 75 76 76 77 78 78 79 79 80
97 97 97 97 96 96 95 95 95 95 94 94 94 93 93 92 92 91 90 89 88 87 86 85 83 81 79 77 75 73 72 70 67 65 64 63 62 62 61 61 60 60 59 58 57 56 55 53 52 50 48 45 43 40 38 37 35 35 34 33 33 32 31 29 27 24 21 18 15 14 12 12 11 11 11 12 14 18 24 39 51 59 64 66 68 71 74 73 73 73 73 73 73 72 73 73 74 75 77 77 77 78 79
98 98 98 98 97 97 97 96 96 96 96 95 95 94 94 93 93 92 91 91 90 89 88 87 86 85 83 81 79 78 76 74 72 70 68 67 66 65 64 64 63 62 61 61 60 59 58 56 54 52 50 48 45 44 43 42 41 41 40 39 39 38 36 35 33 31 29 26 22 19 16 14 13 12 12 11 12 14 17 24 35 48 58 63 65 68 72 74 73 72 73 73 73 73 73 73 73 74 75 76 76 77 78
99 99 99 98 98 97 96 96 96 96 96 95 95 95 94 94 93 93 92 92 91 90 89 89 88 86 85 83 81 79 78 76 74 72 71 70 69 68 67 66 66 65 63 63 61 60 58 56 54 52 50 48 47 46 45 45 44 43 43 42 41 39 38 37 35 34 32 30 28 25 22 19 16 14 13 13 12 13 15 18 24 33 47 55 61 65 69 72 73 73 72 73 73 74 74 73 73 73 74 75 76 76 77
98 99 99 98 97 96 94 94 94 94 94 94 94 94 94 93 93 93 92 91 91 90 89 88 87 86 84 82 81 79 78 76 75 73 73 72 71 70 69 68 67 65 64 62 61 59 56 55 53 51 50 49 48 47 46 45 44 44 43 42 41 39 38 37 35 34 33 31 30 28 26 24 21 18 16 14 14 13 14 16 18 23 30 41 51 59 65 67 70 73 72 73 72 72 73 73 73 73 73 74 75 76 77
96 96 96 96 95 93 92 91 91 91 92 92 93 93 92 92 92 92 91 91 90 89 88 87 86 84 83 82 80 79 78 77 76 74 73 72 71 70 69 67 66 64 62 61 59 57 55 54 52 51 50 49 48 47 46 45 44 43 42 41 40 38 37 36 35 34 33 31 30 29 27 26 24 22 20 18 16 15 14 15 17 19 22 27 36 48 58 62 66 69 71 73 73 72 72 73 73 73 72 73 74 75 76
94 93 93 93 92 90 90 89 89 90 91 92 92 92 92 92 91 91 91 90 89 89 87 86 85 84 83 81 80 79 78 77 76 74 73 72 70 69 67 66 64 62 61 59 57 55 54 53 51 50 49 49 48 46 45 44 42 41 40 39 38 37 36 35 34 33 32 31 30 29 28 27 26 25 23 22 20 18 17 17 17 19 20 23 27 35 47 56 61 64 67 71 73 74 73 73 73 73 72 72 73 74 75
92 92 92 91 90 89 89 89 89 90 91 92 92 92 93 92 91 90 90 90 89 88 87 86 85 84 82 81 80 78 77 76 74 73 71 70 69 67 66 64 62 60 58 57 55 54 53 51 50 50 49 48 47 46 44 43 41 40 38 37 36 35 34 33 32 32 31 31 30 29 28 27 26 26 25 24 23 22 21 20 20 21 21 23 26 29 35 47 55 60 65 68 70 72 73 72 72 73 73 72 72 73 74
91 92 92 92 91 90 90 90 91 92 93 94 94 94 94 93 92 91 91 90 89 88 86 85 84 82 81 80 78 77 75 74 72 70 69 67 66 64 63 61 59 58 56 55 54 53 52 50 49 49 48 47 46 45 44 42 40 39 37 36 35 34 33 32 31 31 31 30 30 30 30 29 28 27 26 26 25 25 24 24 25 25 26 28 30 32 34 41 48 56 62 64 67 69 71 71 71 71 72 72 71 72 73
91 92 93 92 92 92 92 92 93 94 95 96 96 96 96 95 94 93 92 91 90 88 85 84 83 81 80 78 77 75 73 71 69 68 66 64 63 61 59 58 57 56 55 54 53 52 51 49 48 48 47 46 45 44 43 41 40 38 37 36 35 34 33 32 32 31 31 31 31 31 31 30 30 29 28 28 27 27 26 26 27 28 30 34 37 40 42 44 49 55 60 63 65 67 68 69 70 71 71 71 70 70 71
91 92 93 92 92 92 92 93 94 95 97 97 98 98 97 96 95 93 92 91 89 87 84 82 81 79 78 76 74 73 71 69 67 65 63 61 60 58 57 57 56 55 54 53 52 51 49 48 47 46 45 44 43 42 41 40 39 39 39 38 37 36 34 33 32 32 32 32 32 32 32 32 31 31 31 30 30 29 28 28 27 28 29 33 39 44 49 54 57 60 62 64 65 66 66 67 70 72 72 70 69 70 71
91 92 92 92 92 92 93 94 95 96 98 98 98 97 96 94 93 91 89 88 86 84 82 80 78 77 75 73 72 70 68 67 65 63 61 60 58 57 57 56 55 55 53 52 51 49 48 47 46 45 44 43 42 41 40 39 39 39 39 39 38 37 35 34 33 32 32 32 32 32 32 32 32 32 33 33 32 32 31 29 29 28 28 29 33 38 46 54 60 64 66 66 66 67 67 67 69 71 73 70 69 70 71
90 92 92 92 92 92 94 95 95 97 98 98 98 97 94 92 90 89 87 86 84 82 81 79 76 74 73 71 69 68 67 65 64 62 60 59 57 56 56 55 54 53 52 50 49 48 47 46 45 44 43 42 41 40 40 39 39 39 39 38 38 37 36 34 33 32 32 32 32 32 32 32 32 33 33 34 34 34 33 32 31 30 29 29 29 31 35 43 51 59 64 67 68 68 67 67 68 70 72 70 70 70 72
89 90 91 92 92 93 95 95 95 96 98 98 96 94 92 90 89 89 88 87 85 83 81 78 76 73 71 69 68 66 65 64 63 61 59 58 56 54 53 52 52 51 51 50 48 47 46 46 45 44 43 42 41 40 39 39 38 38 37 37 37 36 35 34 33 33 32 32 32 32 32 32 32 33 33 34 34 34 34 33 32 31 30 29 29 29 30 33 39 46 54 62 67 68 67 66 67 69 71 71 70 70 71
87 88 89 90 91 92 92 93 94 95 96 95 94 92 91 90 89 89 88 86 85 83 81 78 76 73 71 68 66 64 63 62 61 60 59 57 55 52 50 50 49 49 49 48 47 46 44 44 44 43 42 41 40 39 39 38 38 37 36 36 36 35 34 34 34 33 33 33 32 32 32 32 32 33 33 34 34 34 34 34 33 32 31 30 30 30 30 30 32 35 41 53 61 65 67 66 65 66 68 70 70 70 72
82 84 85 86 87 88 88 89 90 91 92 92 91 91 90 89 88 87 86 85 83 81 79 76 74 72 70 67 65 63 62 61 60 59 57 55 54 53 52 50 49 48 46 45 44 44 43 43 42 41 41 40 40 39 38 38 37 37 36 35 35 34 33 34 34 35 35 34 33 33 32 32 33 33 34 34 34 34 34 34 34 33 33 32 31 31 30 30 30 31 32 38 46 54 61 64 65 65 64 66 68 69 72
74 76 78 81 82 82 82 84 85 87 87 88 88 87 86 85 84 84 83 82 81 79 78 75 72 70 68 66 64 63 62 61 59 58 57 55 54 54 54 53 51 48 44 41 41 41 42 42 41 40 39 39 39 38 38 37 37 37 36 36 36 35 35 35 36 36 36 35 34 33 33 32 32 33 33 33 33 34 34 34 34 34 34 33 33 32 31 31 30 30 29 30 33 39 46 56 61 63 62 62 64 67 69
64 67 69 73 74 75 75 78 79 80 82 84 84 83 81 80 79 78 77 77 76 76 75 73 71 69 66 65 63 62 61 60 59 58 57 56 55 54 53 53 51 49 47 44 43 42 40 41 41 40 38 37 37 37 38 38 38 38 38 37 37 36 35 35 36 37 36 36 34 33 32 32 32 32 33 33 33 34 34 34 34 34 35 34 34 34 33 32 31 31 30 30 30 31 34 42 50 58 62 62 63 64 66
55 57 59 63 65 68 71 72 73 73 75 78 79 79 79 78 76 75 73 73 72 71 71 71 70 68 66 64 62 61 60 59 58 57 56 56 55 54 54 52 50 48 47 46 44 43 42 39 39 39 39 39 39 39 39 39 39 39 39 38 38 37 36 36 36 36 36 35 34 33 33 33 33 33 33 33 33 34 34 34 34 35 35 36 36 35 34 33 32 32 32 32 32 32 32 35 40 47 56 61 61 61 63
46 48 51 55 58 62 64 66 68 69 70 73 75 76 76 75 73 71 69 69 68 67 68 68 68 67 66 63 61 59 58 58 58 58 57 56 55 55 54 53 51 50 48 49 48 46 46 42 41 42 42 42 41 41 41 40 39 39 39 39 38 38 37 37 37 38 38 37 36 36 36 35 35 35 34 34 34 34 34 34 34 35 35 36 36 36 35 34 33 33 34 34 34 34 34 36 39 43 50 57 61 63 61
41 43 45 48 50 53 56 60 63 65 66 69 71 71 71 70 69 67 67 66 66 66 67 67 67 66 65 63 62 60 58 58 58 58 57 56 56 55 53 53 54 54 53 53 53 51 50 47 44 43 42 41 41 41 41 40 40 40 40 40 40 40 40 40 40 40 40 39 39 38 38 38 37 36 36 35 35 35 35 34 34 35 35 36 36 37 37 36 36 35 35 35 34 34 34 36 39 42 47 56 61 63 60
38 39 40 41 43 46 50 55 58 61 63 65 67 67 67 66 66 66 66 65 65 65 65 66 66 65 64 64 63 61 60 58 58 59 58 57 57 56 55 54 54 54 55 55 56 55 51 48 47 46 44 44 43 43 43 43 42 42 42 42 42 42 42 42 42 42 41 41 40 39 39 39 38 38 37 37 36 36 36 35 35 35 36 36 37 37 38 38 38 37 37 36 35 34 33 33 35 39 44 56 63 65 63
36 37 37 38 39 42 45 49 53 56 59 61 63 64 64 65 65 65 64 64 63 64 64 64 65 65 64 64 64 63 62 60 58 58 59 59 58 57 56 56 54 53 52 51 52 53 51 49 49 48 46 44 45 45 44 44 44 43 43 43 42 42 42 42 42 42 42 41 41 41 40 40 40 39 39 39 38 37 37 37 36 36 36 37 38 38 39 39 39 39 39 38 37 35 33 32 33 35 39 51 62 68 67
35 35 36 37 38 40 41 44 48 52 56 58 61 63 63 63 62 62 61 61 62 62 63 64 64 64 64 64 64 64 63 61 59 58 58 59 59 59 58 58 56 56 55 54 53 52 52 52 52 51 49 47 45 45 45 45 45 44 44 44 44 43 43 43 43 43 43 43 43 42 42 42 42 41 41 41 40 40 39 38 38 37 37 38 38 39 39 39 40 41 41 41 40 38 37 35 34 33 34 42 55 66 69
35 36 36 37 38 39 40 42 45 48 52 55 58 60 61 60 59 59 60 60 61 62 63 63 63 63 63 64 64 64 64 62 60 59 58 58 58 58 59 58 58 57 57 56 55 55 54 54 54 53 53 51 48 46 44 45 45 45 46 45 45 45 45 45 45 44 44 44 44 44 44 44 43 43 43 42 42 42 41 40 39 39 38 38 39 39 39 40 41 42 42 43 43 43 41 39 37 35 35 39 48 59 72
36 37 37 38 38 39 40 42 44 46 48 52 55 57 57 57 57 57 58 59 60 61 62 63 63 64 64 64 64 64 64 62 61 60 59 58 57 56 57 58 58 58 57 57 56 56 55 55 55 54 55 54 52 48 46 45 45 45 46 46 46 46 46 46 46 45 45 45 45 45 45 45 44 44 44 43 43 42 42 41 41 40 39 39 39 39 39 40 41 42 43 44 44 44 44 43 41 39 38 41 46 55 72
Wind_Speed
8 8 7 7 6 6 6 5 5 5 5 6 6 6 6 6 6 6 6 6 7 7 7 7 7 7 7 7 7 7 7 8 8 8 8 8 8 8 8 7 7 7 7 8 8 8 6 6 6 7 8 8 9 10 11 11 11 11 12 12 12 13 12 10 9 9 9 9 9 9 9 9 9 9 9 9 9 9 9 9 9 9 9 9 9 10 10 10 10 10 11 11 11 11 11 11 11 12 12 12 12 12 12
8 8 7 7 6 6 5 5 5 5 5 5 5 5 5 5 5 6 6 5 6 6 7 7 7 7 7 7 7 7 7 7 7 7 8 7 7 7 7 7 7 6 7 7 7 7 6 6 6 7 8 8 8 8 9 9 10 10 11 12 12 12 11 9 9 8 8 8 8 8 8 8 8 8 8 8 8 9 9 9 9 9 9 9 9 9 9 9 9 10 10 10 10 10 10 11 11 11 11 11 11 11 11
8 7 7 6 6 5 5 5 5 5 5 5 5 5 4 4 4 5 5 5 5 5 6 6 6 6 7 7 7 7 6 6 6 6 6 6 6 6 6 6 6 6 7 7 7 7 6 6 6 7 6 6 6 5 6 6 7 8 9 10 12 12 10 9 8 8 8 8 8 8 8 8 8 8 8 8 8 8 8 8 8 8 8 8 8 8 8 8 9 9 9 9 9 9 10 10 10 10 10 10 11 11 11
8 7 7 6 6 5 5 5 5 5 5 5 4 4 4 4 4 4 4 5 5 5 5 5 5 5 6 6 6 6 6 5 5 5 5 5 6 6 6 6 6 7 7 7 7 6 6 6 6 6 5 4 4 4 4 4 5 5 6 8 10 10 9 8 8 8 7 7 7 7 7 7 7 7 7 7 7 7 7 7 7 8 8 7 7 7 7 8 8 8 8 8 8 9 9 9 9 9 9 10 10 10 10
7 7 6 6 5 5 5 5 5 5 5 4 4 4 4 4 4 4 4 4 4 4 4 4 3 4 4 5 5 5 5 5 4 4 4 4 5 5 6 6 6 6 6 6 6 6 6 5 5 5 4 4 3 3 3 3 3 3 4 5 8 9 8 7 7 7 7 7 7 7 6 6 6 6 6 6 6 6 6 6 7 7 7 7 7 7 7 7 7 7 7 8 8 8 8 8 8 9 9 9 9 9 9
7 7 6 6 5 5 5 5 5 5 5 4 4 4 3 3 3 3 3 3 3 3 3 3 3 2 2 3 3 4 4 4 4 3 3 3 3 4 5 6 6 6 6 6 6 6 6 5 5 4 4 3 3 3 3 3 2 2 2 4 6 8 8 7 7 7 7 6 6 6 6 6 6 6 5 6 6 6 6 6 6 6 6 6 6 6 6 6 6 6 7 7 7 7 7 7 8 8 8 8 8 8 9
7 7 6 6 6 6 5 5 5 5 4 4 4 3 3 3 3 3 3 3 3 2 2 2 2 1 1 1 2 2 3 3 3 3 2 2 2 3 4 5 5 5 5 5 5 6 6 5 5 4 4 3 3 3 3 3 2 1 1 3 6 7 8 6 6 6 6 6 6 6 6 6 6 5 5 5 5 5 5 5 6 5 5 5 5 6 6 6 6 6 6 6 6 6 6 7 7 7 7 7 7 8 8
7 7 6 6 6 6 5 5 5 4 4 4 4 3 3 3 2 2 2 2 2 2 1 1 1 1 1 1 1 1 2 3 2 2 1 1 2 2 3 4 5 5 5 5 5 5 5 5 5 4 4 3 3 3 3 3 3 2 1 2 5 7 8 6 6 6 5 5 5 5 5 5 6 6 5 5 5 5 5 5 5 5 5 5 5 5 5 5 5 5 5 5 5 6 6 6 6 6 7 7 7 7 7
7 7 6 6 6 6 6 5 5 5 4 4 4 3 3 3 2 2 2 2 2 2 2 1 1 1 0 0 1 1 1 2 2 2 1 0 1 2 2 3 4 4 4 4 4 4 4 4 4 4 4 3 3 3 3 3 3 3 3 2 3 6 8 6 5 5 5 5 5 5 5 5 5 5 5 5 4 4 4 4 4 4 4 5 4 4 4 4 4 4 4 5 5 5 5 5 5 5 6 6 6 6 6
7 7 7 6 6 6 6 5 5 5 4 4 4 4 3 3 3 2 2 2 2 2 2 2 2 2 1 1 1 1 1 2 2 2 1 1 2 2 3 3 3 3 4 3 3 3 4 4 4 4 4 3 3 2 3 3 3 4 4 3 1 4 7 6 5 5 5 5 5 5 4 4 4 4 4 4 4 4 4 4 4 4 4 4 4 4 4 4 4 4 4 4 4 4 4 5 5 5 5 5 5 6 6
8 7 7 7 7 6 6 5 5 5 5 5 4 4 4 3 3 3 3 3 3 3 3 2 3 3 2 2 2 2 2 2 2 2 2 2 2 3 3 4 3 3 3 3 3 3 3 3 3 3 3 3 2 2 2 2 3 3 4 4 1 3 6 5 5 5 5 5 5 4 4 4 4 4 4 4 4 4 3 3 3 3 3 3 3 4 4 4 3 3 3 3 4 4 4 4 4 4 4 4 5 5 5
8 8 7 7 7 7 6 6 5 5 5 5 5 5 4 4 4 4 4 3 3 3 3 3 3 3 3 3 3 3 3 3 3 2 2 2 3 3 4 5 4 4 3 3 2 2 2 2 2 2 2 2 2 2 1 1 2 3 4 5 2 2 5 5 5 5 5 4 4 4 4 4 3 3 3 4 4 4 3 3 3 3 3 3 3 4 4 3 3 3 3 3 3 3 4 4 4 4 4 4 4 4 5
8 8 8 7 7 7 6 6 6 5 6 5 5 5 5 5 5 4 4 4 4 4 4 4 4 4 4 4 4 4 4 4 4 4 4 4 4 5 5 6 6 5 4 4 3 2 2 2 2 2 2 1 1 1 1 1 1 2 3 4 3 2 4 5 6 6 5 5 4 4 4 4 4 4 4 4 4 4 4 4 3 3 3 3 3 3 4 4 3 3 3 3 3 3 3 3 3 3 3 4 4 4 4
9 8 8 8 8 7 7 7 6 6 6 6 6 6 6 5 5 5 5 5 5 5 5 4 5 5 5 5 5 5 5 6 5 5 5 5 5 6 7 7 7 6 5 5 4 4 3 3 3 2 2 2 1 1 1 0 0 1 2 4 3 2 4 5 6 6 6 5 5 5 5 5 5 4 4 4 4 4 4 4 4 4 4 4 4 4 4 4 4 4 4 4 3 3 3 4 4 4 3 3 3 3 3
9 9 8 9 8 8 8 7 7 7 6 6 6 6 6 6 6 6 6 6 6 5 5 5 5 5 6 6 6 7 7 7 7 6 6 6 6 7 8 9 9 8 6 6 5 5 5 4 4 4 3 3 2 2 2 1 1 1 2 3 3 2 3 5 7 7 7 6 6 5 6 6 6 6 5 5 5 5 5 5 5 5 5 4 4 5 5 4 4 4 4 4 4 4 4 4 4 4 4 4 3 3 3
9 9 9 9 9 9 9 8 8 7 7 7 7 7 7 7 7 7 6 6 6 6 6 6 6 6 7 7 7 8 8 8 8 7 7 7 7 7 8 9 10 9 8 7 7 7 6 6 5 5 5 4 4 3 3 3 2 2 2 3 3 2 4 6 7 8 8 7 7 6 6 7 7 6 6 6 6 6 6 6 6 5 5 5 5 5 5 5 5 5 5 5 5 5 4 4 4 4 4 4 4 4 4
10 10 10 10 10 10 9 9 9 8 8 7 7 7 7 7 7 7 7 7 7 7 7 7 7 7 8 8 8 9 9 10 9 9 8 8 8 8 9 10 11 11 10 9 9 8 8 7 7 6 6 6 6 5 4 4 4 4 4 4 4 4 4 6 8 8 8 8 8 7 7 7 7 7 7 6 6 6 6 6 6 6 6 6 6 6 6 6 6 6 6 6 6 5 5 5 5 5 5 5 4 4 4
12 11 11 11 11 10 10 10 10 9 9 8 8 8 8 8 8 8 8 7 7 7 7 8 8 8 9 9 10 11 12 11 10 10 10 9 9 9 9 11 12 12 12 11 10 10 9 9 8 8 8 7 7 7 6 6 5 5 5 5 5 5 5 6 8 9 9 9 8 8 8 8 8 8 8 7 7 7 7 7 7 7 7 7 7 7 7 7 7 6 6 6 6 6 6 6 6 6 6 5 5 5 5
14 13 12 12 11 11 11 11 11 10 10 10 9 9 8 8 8 8 8 8 8 8 8 8 9 9 9 9 11 13 13 12 11 11 11 11 10 10 11 12 13 13 13 12 12 11 11 10 10 9 9 9 9 9 8 8 7 7 7 7 6 6 6 7 8 9 9 10 9 9 9 9 9 9 8 8 8 8 8 8 8 8 8 8 8 8 8 8 8 7 7 7 7 7 7 7 6 6 6 6 6 6 6
15 15 13 12 12 11 11 11 11 11 11 11 11 10 9 8 8 9 9 9 8 8 9 9 9 9 9 10 12 14 14 14 13 13 12 12 12 12 12 12 13 13 13 13 13 12 12 12 11 11 11 10 10 10 10 10 9 9 8 8 8 7 7 7 8 9 10 10 10 10 10 10 9 9 9 9 9 9 9 9 9 9 9 9 9 9 9 9 9 9 8 8 8 8 8 7 7 7 7 7 7 7 6
17 17 15 14 13 12 11 11 11 11 11 11 11 12 11 11 11 11 11 10 10 9 10 11 11 11 11 13 14 15 16 16 16 15 14 14 14 14 14 14 14 14 14 14 14 14 13 13 13 12 12 12 12 11 11 11 11 10 10 10 9 9 9 8 8 9 10 10 10 10 11 11 10 10 10 10 10 10 10 10 10 9 9 9 9 9 10 10 10 9 9 9 9 9 9 8 8 8 8 8 8 7 7
18 18 18 17 16 15 14 13 13 13 13 13 13 14 14 14 14 14 14 13 13 12 13 13 14 14 15 15 16 17 18 18 18 17 17 16 16 16 15 15 15 15 15 15 15 15 14 14 14 14 13 13 13 13 13 13 13 12 12 11 11 10 10 10 9 9 10 10 11 11 11 11 11 11 11 11 11 11 11 11 11 10 10 10 10 10 10 10 10 10 10 10 10 10 10 9 9 9 9 8 8 8 8
20 19 19 19 19 18 18 17 16 15 15 15 15 16 16 16 15 15 15 15 15 15 15 15 16 16 17 18 18 19 20 20 20 20 19 19 18 18 18 17 17 17 17 17 16 16 16 15 15 15 15 14 14 14 14 14 14 14 14 13 13 12 12 11 11 10 10 11 11 12 12 12 12 12 12 12 12 12 12 12 12 12 11 11 11 11 11 11 11 11 11 11 11 11 10 10 10 10 10 9 9 9 9
21 21 21 21 20 20 20 19 19 18 17 18 18 18 17 17 17 17 17 17 17 17 17 18 18 18 19 19 20 21 22 22 22 22 21 21 20 20 19 19 19 19 18 18 18 18 18 17 17 17 16 16 15 16 16 16 15 16 15 15 15 14 13 13 12 12 12 12 12 12 13 13 13 13 13 13 13 13 13 13 13 13 13 12 12 12 12 12 12 12 12 12 12 11 11 11 11 11 11 10 10 10 10
22 22 22 22 22 21 21 21 21 20 20 20 20 20 20 19 19 19 19 19 19 19 19 19 20 20 21 21 22 22 23 24 24 23 23 23 22 22 22 21 21 20 20 20 20 20 19 19 19 18 18 17 17 17 17 17 17 17 17 17 17 16 16 15 14 14 13 13 13 13 13 13 14 14 14 14 14 14 14 14 14 14 14 13 13 13 13 13 13 13 13 13 12 12 12 12 12 12 12 11 11 11 11
23 23 23 23 22 22 22 22 22 22 22 22 22 22 22 22 21 21 21 21 20 21 21 21 21 21 22 22 23 23 24 25 25 25 25 24 24 24 24 23 23 22 22 22 22 21 21 21 21 20 20 19 19 19 18 18 18 18 18 18 18 18 18 17 16 16 15 15 14 14 14 14 14 15 15 15 15 15 15 15 15 15 15 15 14 14 14 14 14 14 14 14 13 13 13 13 13 13 13 12 12 12 12
23 23 24 24 23 23 23 23 23 23 23 23 23 23 23 23 23 23 23 22 22 22 22 22 22 23 23 23 24 24 25 25 26 26 26 26 26 26 26 25 25 24 24 24 24 23 23 22 22 22 22 21 21 20 20 20 19 19 19 20 20 20 19 19 19 18 17 17 16 16 15 15 15 15 16 16 16 16 16 15 15 15 15 15 15 15 15 15 15 15 15 15 14 14 14 14 14 14 13 13 13 13 13
24 24 24 24 24 24 24 24 24 24 24 24 24 25 25 25 25 25 25 24 24 24 24 24 24 24 24 24 25 25 26 26 26 27 27 27 27 27 27 27 27 26 26 26 26 25 25 24 24 24 23 23 23 22 22 21 21 20 21 21 21 21 21 21 20 20 19 19 18 17 17 16 16 16 16 17 17 17 17 16 16 16 16 16 16 16 16 16 16 16 15 15 15 15 15 15 15 14 14 14 14 14 14
25 25 25 25 25 25 25 25 26 26 26 25 26 26 26 26 26 26 26 26 26 26 26 26 26 26 26 26 26 26 27 27 27 28 28 29 29 29 29 29 29 29 28 28 28 28 27 26 26 25 25 25 24 24 24 23 23 22 22 22 22 22 22 22 22 22 21 21 20 19 18 18 17 17 17 17 17 17 17 17 17 17 17 17 17 17 17 17 17 17 16 16 16 16 16 16 16 15 15 15 15 14 14
26 26 26 26 26 26 27 27 27 27 27 27 27 27 27 27 27 28 28 28 28 27 28 28 27 27 27 27 27 28 28 28 28 29 29 30 30 31 31 31 31 31 31 30 30 30 29 29 28 27 27 27 26 26 26 25 25 24 24 24 24 24 24 24 24 23 23 22 22 21 20 19 19 18 18 18 18 18 18 18 18 18 18 18 18 18 18 18 18 17 17 17 17 17 17 17 17 16 16 16 16 15 15
28 28 28 27 28 28 28 28 28 28 28 28 28 28 29 28 28 29 29 29 29 29 29 29 29 29 29 29 29 29 29 29 30 30 31 31 32 32 32 33 33 33 33 33 32 32 31 31 30 30 29 29 28 28 28 27 27 26 26 25 25 25 26 26 25 25 25 24 24 23 22 21 20 20 19 19 19 19 19 19 19 19 19 19 19 19 19 19 19 19 18 18 18 18 18 18 18 17 17 17 16 16 16
29 29 29 29 29 29 29 29 29 29 30 29 30 30 30 30 29 30 30 30 30 31 31 31 31 31 31 31 31 31 31 31 31 32 32 33 33 33 34 34 34 35 35 34 34 34 34 33 33 32 31 31 31 30 30 30 29 29 28 27 27 27 27 27 27 27 27 26 26 25 24 23 23 22 21 20 20 20 20 20 20 20 20 20 20 20 20 20 20 20 19 19 19 19 19 19 18 18 18 18 17 17 17
29 30 30 30 30 30 30 30 31 31 31 31 31 31 31 31 31 31 31 31 31 32 32 32 32 32 32 32 33 33 32 32 33 33 34 35 35 35 35 35 36 36 36 36 36 36 36 36 35 35 34 33 33 33 32 32 32 31 31 30 29 29 29 29 29 29 28 28 28 27 26 26 25 24 23 22 22 21 21 21 21 21 21 21 21 21 21 21 21 21 20 20 20 20 20 19 19 19 19 19 18 18 18
30 30 31 31 31 31 31 31 32 32 32 32 31 32 32 32 32 32 32 32 32 32 33 33 33 33 33 34 34 34 34 34 35 35 36 36 37 37 37 37 37 37 37 38 38 38 38 38 38 37 36 36 35 35 35 35 34 34 33 33 32 31 31 31 31 30 30 30 30 29 29 28 27 27 26 25 24 23 23 22 22 22 22 22 22 22 22 22 22 22 21 21 21 21 21 20 20 20 20 20 19 19 19
31 31 32 32 32 32 32 33 33 33 33 33 32 32 32 33 33 33 33 33 33 34 34 34 34 35 35 35 36 36 36 36 36 37 37 38 39 39 39 39 39 39 39 39 39 39 39 39 39 39 38 38 38 37 37 37 36 36 36 35 34 34 34 33 33 33 32 32 32 31 31 30 30 29 28 27 27 25 24 24 23 23 23 23 23 23 23 23 23 22 22 22 22 22 22 21 21 21 21 21 20 20 20
32 32 33 33 33 33 34 34 34 34 34 34 33 33 33 33 34 34 34 34 35 35 35 35 35 36 36 36 37 37 38 38 38 38 39 40 40 40 40 40 40 40 40 40 40 40 40 40 40 40 40 39 39 39 38 38 38 37 37 37 36 36 36 36 35 35 35 34 34 33 33 33 32 31 31 30 29 28 27 26 25 24 24 24 24 24 24 24 24 23 23 23 23 23 23 22 22 22 22 21 21 21 21
33 33 34 34 34 34 34 35 35 35 35 34 34 34 34 34 35 35 35 35 35 36 36 36 36 37 37 37 38 38 39 39 39 40 40 40 40 41 41 41 41 40 40 40 40 40 41 41 40 40 40 40 39 39 39 38 38 38 38 38 38 38 37 37 37 37 36 36 36 35 35 35 34 34 33 32 31 31 30 28 27 26 25 25 25 25 24 24 24 24 24 24 24 24 24 23 23 23 23 22 22 22 22
33 34 34 35 35 35 35 35 35 35 35 35 35 35 35 35 35 35 35 36 36 36 37 37 37 37 37 38 38 39 39 39 39 40 40 40 40 40 40 40 40 40 40 40 40 40 40 40 40 40 40 39 39 39 39 39 39 39 39 39 39 39 39 38 38 38 38 37 37 37 37 37 36 36 35 35 34 33 32 31 30 29 28 27 26 26 25 25 25 25 25 25 25 25 24 24 24 24 23 23 23 23 22
33 34 34 34 35 35 36 36 35 35 35 35 35 35 35 35 36 36 36 36 36 37 37 37 37 37 38 38 39 39 39 39 39 39 39 39 39 39 39 39 40 40 40 40 40 40 40 40 40 40 40 40 39 39 39 40 40 40 39 40 40 40 40 39 39 39 39 39 38 38 38 38 38 37 37 37 36 35 34 34 33 31 30 29 28 27 26 26 26 26 26 26 26 25 25 25 25 25 24 24 24 23 23
33 33 34 34 35 35 36 35 35 35 35 35 35 35 35 35 35 36 36 36 37 37 37 36 36 36 37 37 37 38 38 38 38 38 38 38 38 38 38 38 39 40 40 40 40 40 40 41 41 41 41 40 40 40 41 41 41 41 41 41 41 40 40 40 40 40 40 40 40 39 39 38 38 38 38 38 38 37 37 36 35 34 33 32 30 29 28 28 27 27 27 27 27 26 26 26 26 25 25 25 25 24 24
33 33 34 34 34 35 35 35 35 35 35 35 35 35 35 35 35 35 36 36 36 36 36 35 34 33 33 33 33 33 35 36 36 37 37 38 38 38 38 38 39 39 40 39 39 39 40 40 41 41 41 41 41 41 42 42 42 42 41 41 41 41 41 40 40 40 40 41 41 40 40 39 39 38 39 39 39 39 38 38 37 36 35 34 33 32 30 29 28 28 28 27 27 27 27 27 27 26 26 26 26 25 25
33 33 34 34 34 35 35 35 35 35 35 35 35 35 35 35 35 35 35 35 35 34 34 34 33 32 32 30 29 30 31 33 35 36 37 37 38 38 37 38 38 39 39 39 39 39 40 40 40 41 42 41 42 42 43 43 43 42 42 42 41 41 40 40 40 40 40 40 41 41 40 40 39 39 39 39 39 39 39 39 39 38 37 36 35 34 33 32 30 30 29 28 28 28 28 28 27 27 27 27 26 26 26
32 33 33 33 34 34 34 35 35 35 35 35 35 35 35 35 35 35 34 34 33 33 32 33 33 32 31 29 29 28 29 30 32 33 34 35 36 37 37 38 38 38 39 39 39 39 40 40 41 41 41 41 41 42 43 43 42 42 41 41 40 40 39 39 39 38 39 39 39 40 40 40 39 39 39 39 39 39 39 39 39 39 39 38 37 36 35 34 32 31 31 30 29 29 29 29 28 28 28 28 27 27 27
32 32 33 33 34 34 34 34 34 35 35 34 34 34 34 34 34 34 34 34 33 32 31 31 31 31 31 29 28 28 28 29 29 30 31 32 33 35 36 37 38 38 38 39 39 40 40 41 41 41 40 39 39 39 40 41 41 40 39 39 38 38 38 37 37 36 36 36 37 38 38 38 39 39 38 38 39 39 39 39 39 39 39 38 38 37 36 35 34 33 32 31 31 30 30 29 29 29 29 29 28 28 28
31 32 32 33 34 34 34 34 34 34 34 34 34 34 33 33 34 34 34 34 33 32 31 30 30 30 30 29 28 28 28 28 28 29 29 30 31 32 34 35 37 37 37 38 39 39 39 40 40 39 38 37 37 37 37 38 37 37 37 36 36 35 35 35 34 33 33 34 34 35 36 36 37 37 37 38 38 38 39 39 39 38 38 38 37 36 36 35 35 34 33 33 32 31 31 30 30 30 30 30 29 29 29
31 31 32 33 33 34 34 34 34 34 34 33 33 33 33 33 33 33 33 33 33 32 31 30 29 28 29 30 30 30 30 28 28 28 27 27 28 30 32 33 33 34 35 36 37 37 37 37 37 36 36 35 35 35 35 34 34 33 33 33 33 33 32 31 31 30 30 30 31 32 33 33 34 35 35 36 36 37 38 39 39 39 38 38 37 36 35 35 34 34 34 33 33 32 32 31 31 31 30 30 30 30 30
31 31 31 32 32 33 33 33 33 33 33 32 32 32 32 32 31 31 31 30 30 30 30 29 28 28 28 28 28 29 29 29 28 27 26 27 27 29 31 31 31 31 32 33 34 34 34 33 33 33 33 32 32 32 31 31 30 30 29 30 30 30 30 29 27 27 27 28 29 29 30 30 31 31 32 33 34 35 36 37 38 38 38 38 38 37 36 35 34 34 33 33 33 33 32 32 32 31 31 31 31 31 31
31 30 31 31 31 32 33 33 33 33 32 32 31 31 31 31 30 29 29 29 28 28 28 27 26 25 25 25 25 26 27 28 28 27 26 25 26 27 27 28 29 29 30 30 31 31 30 30 30 30 30 29 29 29 28 28 27 27 27 27 27 27 27 26 25 25 25 26 26 27 27 27 28 28 29 30 30 31 32 33 34 36 36 37 38 38 38 37 36 35 34 34 33 33 33 32 32 32 32 32 32 31 31
30 30 31 31 31 31 32 32 32 32 31 31 31 31 31 30 30 29 29 28 27 27 26 25 23 23 23 23 23 23 24 25 25 24 22 20 21 22 22 21 22 23 25 25 26 27 27 26 27 27 27 27 26 26 25 25 24 24 24 24 25 25 24 24 24 23 24 24 25 25 25 26 26 27 27 28 28 29 29 30 31 32 33 34 35 36 37 38 37 37 36 35 34 33 33 33 33 32 32 32 32 32 32
31 30 30 30 31 31 31 31 32 32 31 31 31 31 31 30 29 28 28 27 27 27 26 25 24 22 22 21 21 22 21 22 21 19 17 15 15 15 16 16 18 19 20 21 23 23 23 23 23 24 24 24 24 24 23 22 23 23 22 23 23 24 23 22 23 23 24 24 24 24 25 25 26 26 27 27 27 28 28 28 28 29 30 30 31 32 34 35 37 37 37 36 35 35 34 34 34 33 33 33 33 33 33
31 30 30 30 30 30 30 30 30 31 31 31 31 31 30 29 29 28 27 26 27 26 25 23 22 22 21 21 21 22 21 21 19 16 12 13 14 12 10 14 18 19 19 18 18 19 19 21 22 22 22 22 22 22 21 21 21 22 22 22 23 23 23 22 22 23 24 25 25 24 25 25 25 26 26 27 27 27 27 27 27 27 27 27 28 29 30 32 34 35 37 37 37 36 36 35 34 34 34 34 34 34 33
30 30 30 30 30 30 30 30 30 30 30 29 29 29 29 29 29 28 27 27 27 27 26 23 21 20 20 21 21 21 21 21 20 17 14 15 15 13 12 12 11 8 7 13 15 15 16 18 19 20 20 19 19 20 20 20 21 22 22 22 23 23 22 21 22 23 24 24 25 24 24 24 24 25 25 26 26 26 26 26 26 26 26 26 26 27 28 29 31 32 34 35 36 37 37 36 35 35 35 35 35 34 34
30 30 30 30 29 29 30 30 30 30 29 28 27 27 28 28 28 28 27 26 26 26 26 25 22 20 20 19 19 19 19 20 20 19 18 17 15 13 12 7 5 5 6 8 10 10 11 9 11 14 14 15 16 17 19 20 21 22 22 22 22 22 21 21 21 22 23 24 24 23 22 22 23 23 24 24 25 25 25 25 25 25 25 26 26 26 26 27 28 29 30 31 33 35 36 37 37 36 36 35 35 35 35
28 29 29 29 29 29 29 29 30 30 30 29 28 27 27 27 27 27 27 26 25 25 25 25 23 21 19 19 18 18 17 18 19 20 20 18 14 10 6 4 4 5 7 4 7 9 4 0 3 9 14 15 16 17 19 20 20 21 21 21 21 20 20 20 20 21 22 23 23 23 22 22 22 23 23 24 24 24 25 25 25 25 25 26 26 26 26 26 26 26 27 28 30 32 34 36 37 37 36 36 36 36 36
27 28 28 29 29 29 29 29 29 29 30 29 29 28 27 27 26 26 26 26 26 25 24 23 22 21 20 19 19 18 17 17 18 19 20 20 17 13 7 4 5 6 6 3 3 5 4 4 8 15 17 16 15 15 17 18 18 18 18 19 19 19 20 20 21 22 23 24 24 24 24 24 24 24 24 24 24 25 25 25 26 26 26 26 26 27 27 26 26 26 26 27 28 29 31 33 35 36 36 36 36 36 36
26 27 27 28 29 29 29 29 29 29 29 29 29 29 28 28 27 27 27 26 26 25 24 23 22 22 21 20 19 19 18 16 17 19 19 20 20 19 16 9 5 3 3 3 4 4 3 8 10 11 14 12 10 10 13 14 15 17 18 19 19 20 21 21 22 23 24 24 24 24 25 25 25 25 25 25 26 26 26 26 26 26 27 27 28 28 28 28 27 27 27 27 27 28 29 31 32 34 36 36 36 37 37
25 26 26 27 27 28 29 29 29 29 29 29 29 29 29 29 28 28 27 27 26 26 25 24 23 23 24 22 20 19 19 18 18 18 19 20 21 22 21 20 14 8 7 4 4 5 7 13 10 6 9 12 11 11 15 17 18 19 19 20 20 20 21 21 22 22 23 23 24 24 25 25 25 26 26 26 27 27 27 27 27 27 28 28 29 29 30 30 30 29 29 29 28 28 28 29 30 32 34 35 36 36 37
25 25 26 26 27 27 28 29 29 29 29 29 28 28 28 28 28 28 28 27 27 26 25 25 24 24 23 23 21 20 20 20 19 17 17 19 21 22 23 24 24 24 22 15 13 12 12 10 7 6 9 14 16 16 15 16 18 19 19 19 19 19 20 21 22 22 23 24 24 25 25 25 25 26 26 27 28 28 28 28 28 29 29 29 30 30 31 31 31 31 31 31 31 30 29 28 28 29 31 33 34 35 36
25 26 26 26 27 27 28 28 29 29 28 28 28 27 28 28 29 28 28 27 26 25 25 25 25 25 23 22 20 20 20 21 20 18 15 17 19 22 23 24 25 25 25 26 24 21 15 8 6 6 7 10 15 17 15 13 14 16 17 18 18 19 20 21 23 24 24 25 26 26 26 26 26 26 27 27 28 29 29 30 30 30 30 30 31 31 32 32 32 32 33 33 33 32 31 30 29 28 29 30 32 34 35
26 26 27 27 27 27 28 28 28 29 29 28 27 27 28 28 29 29 28 27 26 25 24 25 25 25 23 22 21 21 21 21 21 18 16 14 16 18 19 21 23 24 24 24 24 23 21 17 12 8 6 7 10 13 16 16 16 16 18 19 21 21 23 24 25 26 26 26 27 27 27 27 27 27 27 27 28 29 30 30 31 31 31 31 32 32 33 33 33 33 33 33 33 33 33 31 30 29 29 29 30 32 34
27 27 27 28 28 28 28 28 28 29 29 28 28 28 28 29 29 29 28 28 27 25 25 25 25 24 24 23 23 23 22 21 21 19 18 16 16 16 16 17 19 20 21 21 21 21 21 21 21 19 13 9 9 10 12 14 16 17 18 19 20 21 23 25 25 26 26 26 27 27 27 27 27 27 27 28 28 29 29 30 31 31 32 32 33 33 34 34 33 33 34 34 34 34 34 33 32 30 29 29 29 30 32
Wind_Direction
146 145 141 136 133 131 129 127 125 121 118 112 109 106 104 102 98 94 91 88 86 84 82 82 80 80 78 78 77 76 75 73 71 69 67 69 76 82 88 95 106 121 134 141 142 140 137 132 126 122 120 118 117 116 113 110 105 97 88 79 70 64 61 59 57 57 59 59 60 60 60 60 60 59 58 57 56 55 55 56 57 57 56 55 55 54 54 55 55 56 57 57 58 58 58 58 58 57 57 56 56 55 55
151 149 144 141 139 137 136 135 132 129 125 120 115 112 110 108 103 98 95 92 89 87 86 83 83 82 80 78 77 76 75 74 72 68 64 64 70 78 86 94 105 118 131 140 145 147 147 144 138 133 129 126 123 120 117 113 106 98 89 78 69 61 56 53 53 54 56 56 57 58 58 58 58 58 57 56 55 54 53 54 55 56 56 55 54 53 52 52 53 53 54 54 55 56 56 57 56 56 56 56 55 55 55
155 152 148 145 143 143 143 142 140 137 133 128 124 120 118 115 110 105 99 96 93 91 90 88 87 86 83 81 79 78 76 74 72 68 62 61 66 74 80 87 93 103 113 124 133 140 146 150 151 149 145 140 136 131 126 119 110 99 89 80 68 58 51 50 50 50 52 53 53 54 55 55 56 56 56 56 55 53 52 53 53 53 54 54 54 52 51 51 50 51 52 52 53 53 54 54 54 55 55 55 55 54 54
158 155 153 151 148 148 149 149 147 144 140 135 131 127 125 120 116 110 105 100 98 96 93 91 90 90 89 87 85 84 80 77 73 68 61 57 62 70 75 80 85 91 98 108 117 127 136 147 156 161 163 162 158 153 146 136 121 103 89 82 72 59 42 43 45 46 48 49 50 51 51 52 52 54 55 55 54 53 52 51 50 51 51 52 52 51 51 49 48 48 48 49 49 50 51 52 53 53 53 53 54 53 53
162 159 157 156 156 156 156 155 152 149 146 142 138 133 128 124 120 115 111 108 106 102 97 92 89 90 92 93 91 90 86 82 75 68 60 52 59 68 74 78 81 85 90 96 104 113 122 135 148 160 169 172 172 169 166 158 140 112 90 83 76 62 38 34 36 39 42 44 46 46 47 47 48 50 51 52 52 51 51 50 49 49 49 49 49 49 49 48 47 46 45 45 46 47 48 49 49 50 50 51 52 52 51
167 166 163 161 161 162 161 160 157 154 152 149 146 142 137 132 127 122 119 119 115 110 104 96 88 85 86 91 95 96 94 88 80 70 59 47 51 63 73 76 79 83 86 89 95 101 110 119 130 142 154 164 170 174 178 177 168 135 93 84 77 64 39 29 28 32 34 37 40 41 42 43 43 45 46 48 49 48 48 48 47 47 46 46 45 46 47 46 45 44 43 42 42 43 44 45 46 47 48 48 49 50 50
172 170 169 166 164 165 167 165 163 162 159 158 156 152 147 142 138 134 131 131 128 121 114 105 95 83 77 85 99 107 108 103 94 81 63 39 35 51 67 75 78 80 84 86 89 93 100 107 114 124 136 150 165 176 184 191 192 179 123 92 79 63 39 25 21 25 27 29 30 32 35 38 39 39 40 42 43 43 42 43 42 42 43 42 42 42 43 43 42 42 40 40 39 39 40 41 41 43 43 44 45 47 48
177 174 173 171 169 169 171 171 170 168 167 167 165 163 160 157 153 151 150 149 146 144 139 133 123 102 92 96 117 129 131 124 118 107 82 27 10 24 48 67 74 77 78 82 85 87 93 98 104 112 123 137 155 174 187 197 200 200 175 113 80 57 28 16 13 17 19 20 21 23 25 29 32 35 35 35 37 37 37 36 37 36 37 37 37 37 37 37 37 37 36 36 36 35 36 37 38 38 39 40 41 42 44
183 181 179 179 176 175 177 176 176 175 171 171 174 176 175 174 172 171 170 171 170 171 169 174 178 186 177 171 172 175 167 156 151 146 142 342 337 350 12 44 64 72 72 75 79 82 86 91 97 103 112 125 142 165 183 195 202 203 199 170 82 45 13 8 7 7 9 11 12 14 15 16 20 24 27 29 30 29 28 28 27 27 28 29 29 29 30 30 31 31 31 31 30 30 31 31 32 33 33 34 35 37 39
189 189 187 186 183 182 182 183 183 182 183 183 183 186 188 189 188 188 185 185 186 189 191 197 210 224 226 215 212 213 208 195 185 186 198 248 303 324 342 3 37 59 63 65 70 75 77 81 87 94 101 112 127 148 171 189 199 206 209 208 122 28 6 4 1 358 357 359 1 3 2 5 7 8 10 16 20 19 16 17 17 16 15 18 19 21 19 21 22 23 22 22 23 23 24 24 25 26 26 27 29 31 33
196 195 193 191 191 189 188 189 189 189 194 191 189 191 196 198 200 201 198 198 198 201 205 212 228 241 245 240 239 241 240 234 226 222 227 249 281 304 323 338 1 28 44 49 55 61 64 66 72 80 88 97 109 126 149 176 194 205 212 218 220 17 4 358 354 351 347 344 347 349 345 350 352 354 352 357 1 4 5 6 5 1 358 1 4 6 7 9 10 12 12 11 11 12 14 15 17 18 19 20 21 24 26
202 201 199 197 197 196 195 196 199 200 197 194 194 196 198 203 207 208 206 207 209 212 216 222 235 247 252 252 251 253 254 255 256 256 258 267 279 295 312 325 340 357 14 24 30 36 43 46 49 56 68 80 91 102 127 158 186 202 209 216 232 347 350 343 341 341 340 334 333 333 329 324 326 332 334 337 338 340 347 348 348 345 340 339 342 347 351 354 356 357 358 359 358 357 358 1 4 7 9 10 11 14 17
206 206 204 201 202 202 202 199 201 204 203 202 203 203 203 208 211 213 213 215 218 220 223 228 238 249 255 257 257 259 261 266 271 276 279 283 287 295 306 319 330 342 355 359 2 5 8 14 16 21 28 44 61 72 92 135 178 197 204 213 227 314 339 331 328 331 331 327 322 317 312 305 301 304 315 319 322 325 326 328 329 328 324 323 322 326 331 336 340 342 342 345 344 343 342 346 349 351 355 357 359 1 5
211 210 208 206 207 208 208 206 205 206 207 210 211 212 211 214 215 215 218 221 224 227 229 231 239 248 256 260 262 265 269 276 282 287 289 292 293 299 307 315 325 335 347 347 344 342 342 344 343 345 346 352 1 5 353 335 257 214 209 215 221 278 329 323 320 319 321 321 316 309 302 297 293 293 299 303 306 308 309 310 311 312 311 310 310 311 313 315 319 324 328 331 331 329 330 330 332 336 338 342 345 347 350
214 213 212 211 212 213 212 210 209 210 212 215 217 216 218 218 218 218 222 225 229 231 233 234 240 249 257 262 268 273 278 285 292 298 300 301 301 304 308 314 321 330 340 338 333 329 328 327 325 324 323 323 325 324 318 309 298 276 245 230 228 263 320 317 313 311 311 312 310 305 298 294 292 290 291 292 295 296 296 296 297 298 299 300 300 300 302 303 303 305 310 316 319 319 320 316 317 321 323 324 327 330 333
216 216 217 217 217 217 218 217 215 213 216 220 221 222 221 221 221 222 226 227 230 233 236 238 243 251 259 267 273 278 281 288 296 304 307 308 308 309 311 312 318 326 332 328 324 321 318 316 315 314 312 311 310 308 306 301 296 290 278 261 253 268 307 309 307 304 303 303 301 299 294 293 292 290 288 287 287 288 288 286 287 287 289 291 291 291 291 293 294 294 296 301 306 309 309 307 306 309 311 313 313 315 316
219 220 221 222 223 223 223 223 221 220 219 223 227 228 228 226 226 227 228 229 232 236 239 242 247 254 261 269 273 276 281 290 297 304 309 311 311 311 310 308 313 320 322 320 316 315 312 310 308 307 305 304 303 301 299 296 294 289 285 278 275 278 293 299 300 299 297 295 294 292 289 288 288 288 286 284 282 282 282 282 281 280 282 282 283 284 283 284 286 287 288 290 294 297 298 299 299 298 300 301 303 304 304
224 225 225 226 227 228 228 228 228 227 224 225 228 231 232 231 230 231 233 234 237 239 242 245 250 257 265 271 274 278 286 294 301 306 310 312 312 310 307 305 310 314 315 314 312 310 308 306 304 303 301 299 298 297 296 293 291 289 286 284 282 282 285 290 293 294 293 292 290 288 286 283 283 282 281 281 281 279 278 278 277 277 277 277 277 278 278 278 279 279 280 282 284 287 290 291 292 291 292 294 296 296 296
228 228 228 230 232 233 234 235 237 237 235 233 232 232 235 237 238 239 240 241 242 244 247 251 256 263 271 267 271 279 288 296 303 309 312 313 312 309 306 305 307 308 309 309 309 308 306 304 302 301 298 296 295 293 292 291 290 287 286 284 284 283 280 283 286 288 289 289 288 286 284 282 280 278 277 278 279 278 276 275 274 274 274 273 273 274 274 274 274 275 275 276 277 279 281 283 284 286 287 289 291 292 291
231 230 229 230 233 236 239 242 244 245 244 241 237 235 238 240 242 243 243 243 245 249 253 254 255 257 260 253 261 274 284 293 299 305 308 309 309 307 305 304 304 304 304 305 305 305 304 303 301 300 297 295 292 291 290 289 288 286 284 283 282 281 279 277 277 280 283 284 284 284 283 280 279 277 275 275 275 275 274 273 272 271 271 271 270 270 270 270 271 273 273 273 274 274 275 275 277 279 281 283 285 286 287
235 234 232 232 234 236 235 237 240 242 242 242 240 238 237 237 238 238 238 239 241 243 245 246 245 243 242 247 258 269 280 288 294 298 301 303 304 303 302 301 300 300 301 300 301 301 301 300 299 298 296 294 291 289 287 287 286 285 283 282 280 280 278 274 272 273 277 280 281 281 280 279 277 276 275 274 272 272 272 272 271 270 270 269 269 269 268 268 269 270 270 271 271 271 271 271 272 273 275 277 279 280 282
241 240 239 238 239 239 237 236 237 238 240 240 241 242 243 242 242 241 240 241 240 240 241 243 244 245 247 252 260 268 277 284 289 292 296 297 298 299 298 298 298 297 297 297 297 297 297 297 296 295 294 293 291 288 286 285 284 283 282 280 278 277 276 275 271 270 272 276 278 279 279 278 277 275 274 273 272 271 270 271 270 269 268 267 268 269 268 267 267 268 268 268 269 269 268 268 268 269 269 271 273 274 276
246 245 245 245 245 245 246 245 244 242 242 243 246 249 252 253 253 252 251 250 249 248 247 248 250 252 254 258 263 269 275 281 285 288 291 294 295 295 295 295 295 295 295 295 295 295 294 294 294 293 292 291 290 288 286 285 284 283 281 280 279 277 275 274 273 271 270 272 275 276 276 277 276 275 274 272 272 270 269 268 268 267 266 266 266 267 266 266 266 266 266 266 266 267 267 267 266 266 265 266 268 269 271
249 249 249 249 250 250 251 251 250 249 248 249 252 255 258 261 261 261 261 260 259 259 257 256 256 258 259 262 265 270 275 279 283 286 288 290 292 293 293 293 294 294 294 294 293 293 293 292 292 291 291 290 289 288 287 286 284 283 282 281 279 278 276 275 274 272 270 270 271 273 274 274 275 274 274 272 271 270 269 268 267 266 266 265 264 264 264 264 264 264 265 265 265 265 265 265 265 265 264 265 266 266 267
250 251 252 252 253 254 255 255 255 254 253 254 256 259 261 263 265 266 266 266 266 266 266 265 264 265 265 266 268 271 274 278 281 284 286 288 289 290 291 292 292 292 293 292 293 292 292 291 291 290 290 289 289 288 287 286 285 284 283 282 281 279 278 276 274 272 271 269 268 269 270 271 272 273 272 272 271 270 269 269 268 266 265 265 264 263 263 262 263 264 263 263 263 264 264 264 263 263 263 264 264 265 265
251 252 254 255 256 257 257 258 258 258 257 258 259 261 262 265 267 269 269 270 270 270 271 271 271 271 270 270 271 272 274 277 280 282 285 286 287 288 289 290 290 291 291 291 291 291 291 291 290 289 289 289 288 286 286 285 284 284 283 282 281 280 279 277 275 273 272 270 268 267 267 268 270 270 271 270 270 270 269 269 269 267 265 265 264 263 262 261 262 263 262 261 262 263 263 263 262 262 262 262 263 263 264
252 253 255 257 258 259 259 259 259 260 260 261 262 263 264 265 268 269 270 271 272 272 273 274 274 274 274 274 274 274 276 277 279 281 283 284 285 286 287 288 288 289 289 290 290 290 290 290 290 289 289 288 287 285 284 284 283 283 282 281 281 280 279 277 276 274 272 271 269 267 266 267 268 269 270 270 269 269 268 268 267 267 266 265 264 263 262 261 261 262 262 261 261 261 262 261 261 261 261 261 261 262 262
253 254 256 258 259 260 260 261 261 262 263 263 264 264 265 266 268 270 271 271 272 273 273 275 275 276 276 277 277 277 277 278 279 280 281 283 284 284 285 286 286 287 287 288 288 289 289 289 289 289 288 287 286 285 284 283 282 281 280 280 280 279 278 277 276 275 273 271 269 268 266 265 266 267 268 268 268 268 267 267 267 266 266 265 264 263 263 262 262 261 261 261 260 260 260 260 260 260 260 260 260 260 261
254 256 258 259 260 261 261 263 263 264 264 265 265 265 267 267 268 270 271 272 273 273 274 275 276 277 277 278 278 279 279 279 280 280 281 282 282 283 284 284 285 285 286 286 287 287 288 289 289 289 289 288 287 286 285 283 282 281 280 279 278 278 277 276 276 274 273 272 270 269 267 265 265 266 265 266 266 267 267 266 266 265 265 264 264 263 262 262 261 260 260 259 259 259 259 259 259 259 258 258 258 259 260
256 258 259 260 261 261 262 263 264 265 266 267 266 266 268 269 269 270 271 273 273 274 275 275 276 277 277 278 279 279 280 280 280 280 281 281 282 282 283 283 284 284 285 285 286 287 287 288 288 289 289 289 288 287 286 285 284 282 280 279 278 278 277 276 275 274 273 272 271 269 268 266 266 265 266 265 265 266 266 265 265 264 264 263 263 262 261 260 259 259 258 258 258 258 258 258 258 258 257 257 257 258 258
258 259 260 261 261 262 263 264 265 266 267 267 267 268 269 270 270 270 272 272 273 274 274 275 276 277 277 278 278 279 280 280 280 280 280 281 281 282 282 282 283 283 284 284 285 285 286 287 288 288 288 289 289 288 288 286 285 283 282 280 279 278 277 276 275 275 274 273 271 270 268 267 265 265 264 264 264 264 265 264 264 264 263 263 262 262 261 260 259 258 258 258 257 257 256 256 256 256 256 256 256 256 257
259 260 260 261 261 262 263 264 265 266 267 268 268 269 270 271 270 271 272 272 272 273 274 275 275 276 277 277 278 279 279 279 279 280 280 281 281 281 282 282 282 283 283 284 284 284 285 286 286 287 287 287 288 288 288 287 286 285 283 282 280 279 278 277 276 275 274 273 272 270 269 267 265 264 263 263 262 262 263 264 263 263 263 262 262 261 260 259 258 257 257 257 256 256 255 255 255 254 254 254 255 255 255
259 259 260 260 261 262 263 264 265 266 268 268 268 269 270 271 271 270 271 271 272 273 273 274 274 275 275 275 276 277 277 277 278 278 279 280 281 281 282 282 282 282 283 283 283 284 284 284 285 285 285 286 286 286 287 287 287 286 284 283 281 280 279 278 277 276 275 274 272 271 269 267 265 264 263 262 261 261 261 262 262 262 262 261 261 260 259 259 258 257 256 256 254 253 254 254 254 253 253 253 253 253 254
259 260 261 261 262 262 263 264 265 266 268 268 268 268 269 270 270 270 270 270 271 272 272 272 273 273 274 274 275 276 276 277 277 278 278 280 281 282 282 282 283 283 282 283 283 283 283 283 283 284 284 284 284 285 285 286 286 285 284 283 283 281 280 279 277 276 275 274 272 271 270 268 266 264 263 262 261 260 259 259 260 260 261 260 260 259 259 258 257 257 256 255 254 253 253 253 253 252 252 252 252 252 252
259 260 261 262 263 263 263 264 265 266 267 268 268 268 268 269 269 270 270 270 270 271 271 271 272 272 273 273 274 275 276 277 277 277 278 279 280 281 282 282 283 283 283 283 283 283 283 283 283 283 284 284 284 284 284 284 284 284 284 283 283 282 281 279 278 276 275 274 273 271 270 268 267 265 263 262 261 260 259 258 258 259 259 259 259 258 258 257 257 256 256 255 254 253 252 252 252 251 251 251 251 251 251
259 261 262 263 263 264 264 265 266 266 267 268 268 268 268 268 269 269 269 269 269 270 271 272 272 272 272 272 273 274 275 276 277 277 278 278 280 281 281 282 282 283 283 283 284 284 284 284 284 284 284 284 284 284 284 284 284 283 283 283 282 282 281 280 278 277 275 274 273 271 270 269 267 266 264 263 261 260 258 257 257 257 257 257 258 257 257 257 256 256 255 255 254 253 252 252 251 250 250 250 250 249 249
260 261 262 262 263 264 264 266 267 267 267 268 268 268 268 268 268 268 268 269 269 270 271 272 272 272 272 272 273 274 275 276 277 277 278 279 280 281 281 282 283 283 283 284 284 284 284 285 285 285 285 285 285 285 285 285 284 284 283 283 283 282 281 280 278 277 276 274 272 271 270 268 267 266 265 263 262 260 259 257 256 256 255 256 256 256 256 256 255 255 255 254 253 253 252 251 251 250 249 249 249 249 248
259 260 261 262 263 263 264 266 267 268 268 268 269 269 268 269 269 269 269 270 271 272 272 272 272 273 273 273 274 275 276 276 277 277 278 279 280 281 282 283 284 284 285 285 286 286 286 286 287 287 287 287 287 287 287 286 285 285 284 284 283 282 281 280 279 278 276 274 273 271 269 268 267 266 265 263 262 261 259 258 257 256 255 254 255 255 255 255 255 254 254 253 253 252 252 251 250 250 249 248 248 248 247
260 260 261 262 263 264 266 267 268 269 270 269 270 270 270 269 270 271 271 271 272 273 272 272 273 274 274 275 275 276 277 277 277 278 279 279 280 281 283 284 285 285 286 287 288 288 288 288 288 288 288 288 288 288 288 287 286 286 285 284 283 283 282 281 280 279 277 276 273 271 269 268 266 265 264 263 262 261 260 259 257 256 255 254 253 253 254 254 254 254 253 253 252 252 251 250 250 249 248 248 247 247 247
261 261 262 263 264 266 268 269 269 270 270 270 270 271 271 270 270 271 272 272 273 273 273 273 274 274 275 276 277 278 278 278 278 279 280 280 281 282 284 285 285 286 288 288 288 288 289 289 289 289 289 289 289 289 288 287 287 286 285 284 283 283 282 281 280 279 278 276 274 272 270 268 267 265 264 263 262 262 261 260 258 257 256 254 253 252 252 252 253 253 252 252 252 251 251 250 250 249 248 248 247 246 245
263 264 264 264 266 268 269 270 270 271 271 271 271 271 271 271 271 271 272 273 273 274 275 275 274 273 275 276 277 278 279 280 280 280 281 281 282 283 284 285 286 287 288 288 288 288 288 288 289 289 290 290 289 289 288 287 286 286 285 284 283 282 282 281 280 279 278 276 275 273 271 269 267 266 265 264 263 262 261 260 259 258 257 255 254 253 252 251 251 252 252 252 251 251 251 250 250 249 249 248 247 246 245
264 265 266 266 267 269 269 270 271 272 271 271 271 271 271 271 271 272 272 273 273 274 275 275 274 273 274 275 275 276 278 280 280 281 282 283 283 284 285 286 286 287 288 288 287 287 287 288 288 289 289 290 289 288 287 287 286 285 285 284 283 282 281 280 279 278 277 276 275 275 273 271 269 267 266 265 264 262 261 260 259 258 257 256 255 254 252 251 250 250 250 251 251 250 250 250 249 249 248 248 247 246 246
264 265 266 267 268 269 270 271 271 271 271 271 271 271 271 271 272 272 272 272 272 273 273 274 274 273 273 273 274 275 276 278 280 281 283 284 284 285 285 286 286 287 287 287 287 287 288 288 288 289 289 289 288 287 287 287 287 286 286 285 284 283 281 280 278 277 276 276 275 275 274 273 271 269 267 266 264 263 262 261 259 258 258 257 256 255 253 252 251 250 249 249 250 250 249 249 249 249 248 248 247 246 246
265 265 266 267 268 269 270 270 271 271 270 270 270 270 270 271 272 272 272 272 271 271 272 273 273 272 272 272 273 274 274 276 279 281 282 283 284 285 285 286 286 286 287 287 287 287 288 288 289 289 288 287 285 285 286 286 287 287 286 285 283 282 281 279 278 277 276 275 274 274 273 273 271 270 268 266 265 263 262 260 259 258 257 256 256 255 254 253 251 250 249 249 248 248 249 249 248 248 248 248 247 246 246
265 265 266 267 268 269 269 270 270 270 270 269 269 269 270 270 271 271 271 271 270 269 269 271 272 272 271 271 271 272 273 275 278 280 281 282 284 285 285 285 286 286 287 287 287 288 288 289 289 289 287 285 284 284 284 285 285 286 286 284 283 281 281 280 279 278 277 276 274 273 272 272 271 270 269 267 265 264 262 260 258 256 255 255 254 254 253 253 252 250 249 249 248 248 248 248 248 248 247 247 247 246 246
266 266 266 267 268 268 269 269 269 269 269 269 268 268 269 269 270 270 270 270 270 269 268 269 270 270 271 271 271 272 273 275 277 278 281 282 283 284 284 285 285 286 286 286 287 288 289 290 289 288 286 285 284 284 283 283 284 283 282 282 281 281 281 281 280 279 278 276 275 274 273 273 272 272 271 269 268 266 263 261 259 257 255 253 252 252 251 251 251 250 249 249 248 247 247 247 247 247 247 247 247 246 246
267 266 266 267 268 269 269 269 269 268 268 267 267 266 267 268 268 268 268 268 268 268 269 269 270 270 271 272 272 272 273 274 275 277 280 282 282 283 283 285 285 285 284 285 287 288 289 289 288 287 285 285 284 283 282 282 282 281 278 278 280 281 282 282 282 281 280 278 277 276 275 275 274 274 273 272 271 269 267 265 263 261 258 256 253 251 250 249 249 249 249 248 248 247 247 247 247 247 247 246 246 246 245
267 266 267 268 268 269 269 269 268 267 266 266 265 265 265 267 267 267 267 267 267 268 269 269 270 271 272 273 272 272 274 275 276 278 280 283 284 284 284 285 286 286 286 286 287 288 287 286 285 284 283 282 282 281 281 281 280 278 277 278 279 279 281 283 284 283 281 280 279 278 278 278 277 276 275 274 273 272 271 270 268 266 263 260 258 255 252 249 248 248 248 248 248 247 247 247 246 246 246 246 246 245 245
268 267 268 268 268 268 268 269 268 267 265 265 264 265 267 268 268 267 268 267 267 267 268 267 267 268 271 272 273 273 274 275 277 280 280 282 286 289 288 286 286 286 287 286 287 287 286 283 280 279 278 278 278 279 280 280 278 277 278 278 277 278 281 283 284 284 282 281 280 280 280 280 279 278 276 275 274 274 273 273 272 271 269 266 263 260 257 253 250 248 247 247 247 247 247 247 246 246 246 246 246 245 245
269 268 268 268 268 268 268 269 268 267 266 265 266 267 268 268 268 267 267 267 266 266 266 266 265 264 266 268 271 273 272 272 275 277 276 274 280 289 295 294 293 291 288 285 284 284 283 279 275 274 274 275 275 276 276 276 275 275 276 276 276 277 280 281 282 282 281 281 280 280 280 280 279 278 277 276 275 275 274 275 274 274 273 271 268 265 262 258 254 251 248 247 247 247 247 247 247 247 246 246 246 245 245
270 269 268 268 269 269 269 269 268 268 267 267 268 268 268 267 267 266 265 264 263 263 262 262 264 264 262 263 268 271 269 269 268 267 266 269 272 278 290 300 302 300 295 292 286 282 279 274 272 271 271 271 271 272 272 272 272 273 273 274 275 276 278 279 279 279 279 279 280 280 280 279 278 277 277 276 276 276 276 275 275 275 275 274 272 269 266 262 259 255 251 249 247 246 246 246 246 246 246 246 245 245 245
270 270 269 269 268 269 269 269 269 268 268 267 267 267 268 267 266 265 264 262 262 261 259 258 260 263 262 262 266 269 267 266 262 257 252 265 272 275 280 295 300 298 301 309 303 291 280 269 267 269 268 269 269 269 270 270 270 271 272 273 273 274 275 276 276 276 277 277 278 279 280 280 279 278 277 277 277 277 276 275 275 275 274 274 272 271 268 266 263 260 256 253 249 246 245 245 245 246 246 246 245 245 245
271 271 270 269 269 269 270 269 268 268 267 264 263 264 266 266 266 265 264 262 261 260 259 256 256 259 264 263 265 266 265 263 260 255 249 256 269 279 281 279 278 291 318 322 314 300 287 264 262 269 271 272 272 272 271 268 267 268 270 270 271 273 273 274 274 274 274 274 276 278 280 280 279 278 278 278 278 278 277 276 275 275 274 274 273 272 270 268 267 264 262 258 254 250 247 245 244 245 245 245 245 245 244
272 272 271 270 270 269 269 268 268 268 267 264 263 262 263 263 264 264 263 261 260 259 257 257 254 254 259 262 264 263 263 262 260 256 253 251 254 267 280 262 258 280 293 298 302 301 296 338 305 295 288 285 279 273 269 264 263 265 267 268 269 271 272 272 272 272 272 273 275 277 278 279 278 278 278 278 278 278 277 277 276 275 274 273 273 272 271 271 270 268 265 262 258 254 250 247 244 244 244 244 244 244 243
275 275 273 272 270 269 268 268 268 267 267 265 263 261 261 261 261 262 262 261 260 259 256 255 252 250 251 258 262 264 265 263 259 256 253 250 243 239 251 274 285 287 287 249 243 269 297 344 327 309 294 286 276 267 262 260 262 264 266 267 268 270 272 272 272 272 272 273 274 275 275 276 276 277 276 277 277 276 277 277 277 276 275 273 273 272 272 273 272 270 268 265 261 258 254 250 246 244 243 243 243 243 243
277 276 275 273 271 270 269 268 267 266 266 265 263 261 260 261 261 262 262 261 260 258 256 253 251 250 248 252 259 264 267 265 261 258 253 251 244 239 240 249 269 292 293 268 259 266 309 344 332 309 295 289 276 264 265 267 268 268 269 268 268 270 271 272 271 270 271 272 272 273 273 273 274 273 273 274 274 274 274 275 276 275 275 274 273 273 272 272 272 270 268 267 264 262 258 254 250 246 244 243 243 242 242
278 276 275 274 273 272 270 267 266 265 265 263 262 261 261 262 262 262 262 260 259 257 254 252 252 251 250 250 254 261 266 268 265 260 255 251 248 244 241 240 239 243 255 277 299 307 312 323 321 300 296 297 287 275 277 278 275 272 270 268 268 269 269 269 268 268 268 269 270 270 271 271 271 270 271 271 272 272 273 273 274 274 274 274 274 273 272 272 271 270 269 267 266 265 263 260 256 251 247 244 243 242 241
279 277 277 276 275 273 270 268 266 265 264 263 262 262 262 262 261 261 261 260 259 257 256 253 251 251 251 250 250 254 261 264 265 263 257 254 251 247 245 242 243 245 248 256 269 282 297 305 297 285 300 303 293 282 275 272 272 271 269 268 269 270 270 269 268 267 268 268 268 269 269 269 268 268 269 269 270 270 271 271 272 273 274 274 273 273 272 272 272 271 269 268 268 267 267 266 263 258 252 247 244 242 241
282 280 278 277 275 273 271 269 267 265 263 263 262 261 260 260 260 261 261 261 261 259 257 253 251 251 251 249 247 248 254 258 262 263 260 259 255 250 247 245 246 248 249 253 258 264 271 279 286 292 303 303 299 294 284 271 267 271 273 274 274 273 273 271 269 268 268 268 268 268 268 267 267 267 266 267 267 268 269 270 270 271 272 272 272 272 272 272 271 271 270 270 269 269 268 268 267 264 260 253 247 244 242
284 282 280 278 276 274 272 270 268 266 264 262 261 259 259 260 262 263 262 262 262 259 256 253 253 252 250 247 244 244 248 255 259 260 259 260 258 254 247 245 246 247 249 251 254 256 257 258 263 276 288 290 299 302 297 285 279 276 276 277 277 275 273 271 269 268 268 268 267 267 266 266 265 265 264 264 265 266 267 268 268 269 269 270 270 270 270 270 270 270 270 269 268 268 267 267 267 267 265 260 253 247 244
285 283 280 278 276 275 273 270 268 266 265 263 261 260 260 261 262 263 262 261 261 259 257 255 253 252 249 246 244 243 246 252 257 258 254 254 259 260 253 246 245 247 249 250 252 253 253 253 255 259 264 274 286 289 291 291 289 285 279 276 275 274 272 269 268 267 267 267 267 266 266 265 264 264 263 264 264 265 266 267 267 267 267 267 267 268 268 268 268 268 268 267 267 267 266 266 266 266 266 264 259 252 246